Time,TemperatureF,DewpointF,PressureIn,WindDirection,WindDirectionDegrees,WindSpeedMPH,WindSpeedGustMPH,Humidity,HourlyPrecipIn,Conditions,Clouds,dailyrainin,SoftwareType,DateUTC
2013-06-27 00:12:00,61.0,40.0,-100.00,South,186,8.0,11.0,46,-99.99,,,-99.99,,2013-06-27 06:12:00,
2013-06-27 00:22:00,61.0,40.0,-100.00,SSW,194,8.0,13.0,46,-99.99,,,-99.99,,2013-06-27 06:22:00,
2013-06-27 00:43:00,61.0,40.0,-100.00,SSW,204,7.0,12.0,46,-99.99,,,-99.99,,2013-06-27 06:43:00,
2013-06-27 00:53:00,61.0,40.0,-100.00,SSW,208,7.0,12.0,45,-99.99,,,-99.99,,2013-06-27 06:53:00,
2013-06-27 01:12:00,61.0,38.0,-100.00,SSW,212,7.0,11.0,42,-99.99,,,-99.99,,2013-06-27 07:12:00,
2013-06-27 01:22:00,61.0,35.0,-100.00,SW,216,6.0,11.0,38,-99.99,,,-99.99,,2013-06-27 07:22:00,
2013-06-27 01:42:00,61.0,34.0,-100.00,SW,224,5.0,11.0,36,-99.99,,,-99.99,,2013-06-27 07:42:00,
2013-06-27 01:52:00,62.0,33.0,-100.00,WSW,237,4.0,8.0,34,-99.99,,,-99.99,,2013-06-27 07:52:00,
2013-06-27 02:11:00,62.0,33.0,-100.00,SW,236,4.0,8.0,34,-99.99,,,-99.99,,2013-06-27 08:11:00,
2013-06-27 02:22:00,62.0,33.0,-100.00,SW,233,5.0,10.0,34,-99.99,,,-99.99,,2013-06-27 08:22:00,
2013-06-27 02:43:00,62.0,33.0,-100.00,WSW,247,4.0,10.0,33,-99.99,,,-99.99,,2013-06-27 08:43:00,
2013-06-27 02:52:00,62.0,33.0,-100.00,West,264,3.0,8.0,33,-99.99,,,-99.99,,2013-06-27 08:52:00,
2013-06-27 03:11:00,62.0,33.0,-100.00,SW,236,4.0,10.0,33,-99.99,,,-99.99,,2013-06-27 09:11:00,
2013-06-27 03:43:00,62.0,33.0,-100.00,WSW,255,3.0,7.0,33,-99.99,,,-99.99,,2013-06-27 09:43:00,
2013-06-27 03:53:00,62.0,33.0,-100.00,WSW,258,3.0,7.0,33,-99.99,,,-99.99,,2013-06-27 09:53:00,
2013-06-27 04:11:00,62.0,33.0,-100.00,West,265,4.0,7.0,33,-99.99,,,-99.99,,2013-06-27 10:11:00,
2013-06-27 04:43:00,63.0,34.0,-100.00,WSW,253,5.0,9.0,34,-99.99,,,-99.99,,2013-06-27 10:43:00,
2013-06-27 04:54:00,63.0,35.0,-100.00,WSW,254,5.0,9.0,35,-99.99,,,-99.99,,2013-06-27 10:54:00,
2013-06-27 05:01:00,62.0,34.0,-100.00,SW,225,5.0,8.0,35,-99.99,,,-99.99,,2013-06-27 11:01:00,
2013-06-27 05:11:00,62.0,34.0,-100.00,SW,225,5.0,8.0,35,-99.99,,,-99.99,,2013-06-27 11:11:00,
2013-06-27 05:21:00,62.0,35.0,-100.00,SW,226,4.0,8.0,37,-99.99,,,-99.99,,2013-06-27 11:21:00,
2013-06-27 05:33:00,62.0,34.0,-100.00,West,261,3.0,6.0,35,-99.99,,,-99.99,,2013-06-27 11:33:00,
2013-06-27 05:43:00,62.0,34.0,-100.00,West,261,3.0,6.0,35,-99.99,,,-99.99,,2013-06-27 11:43:00,
2013-06-27 05:52:00,62.0,34.0,-100.00,WSW,254,3.0,6.0,35,-99.99,,,-99.99,,2013-06-27 11:52:00,
2013-06-27 06:11:00,62.0,34.0,-100.00,WSW,250,3.0,9.0,35,-99.99,,,-99.99,,2013-06-27 12:11:00,
2013-06-27 06:22:00,62.0,35.0,-100.00,West,271,3.0,8.0,36,-99.99,,,-99.99,,2013-06-27 12:22:00,
2013-06-27 06:42:00,61.0,35.0,-100.00,West,266,4.0,8.0,38,-99.99,,,-99.99,,2013-06-27 12:42:00,
2013-06-27 07:11:00,62.0,36.0,-100.00,WSW,256,5.0,10.0,38,-99.99,,,-99.99,,2013-06-27 13:11:00,
2013-06-27 07:34:00,63.0,37.0,-100.00,SW,220,4.0,9.0,38,-99.99,,,-99.99,,2013-06-27 13:34:00,
2013-06-27 07:43:00,62.0,38.0,-100.00,SE,133,7.0,9.0,41,-99.99,,,-99.99,,2013-06-27 13:43:00,
2013-06-27 08:01:00,62.0,37.0,-100.00,South,174,10.0,14.0,40,-99.99,,,-99.99,,2013-06-27 14:01:00,
2013-06-27 08:11:00,64.0,41.0,-100.00,South,171,5.0,10.0,43,-99.99,,,-99.99,,2013-06-27 14:11:00,
2013-06-27 08:22:00,63.0,40.0,-100.00,SSE,164,7.0,11.0,43,-99.99,,,-99.99,,2013-06-27 14:22:00,
2013-06-27 08:43:00,65.0,43.0,-100.00,South,187,6.0,13.0,44,-99.99,,,-99.99,,2013-06-27 14:43:00,
2013-06-27 08:52:00,66.0,42.0,-100.00,SSW,205,6.0,12.0,42,-99.99,,,-99.99,,2013-06-27 14:52:00,
2013-06-27 09:11:00,67.0,47.0,-100.00,SE,139,6.0,9.0,48,-99.99,,,-99.99,,2013-06-27 15:11:00,
2013-06-27 09:22:00,64.0,49.0,-100.00,SE,140,10.0,14.0,59,-99.99,,,-99.99,,2013-06-27 15:22:00,
2013-06-27 09:42:00,64.0,49.0,-100.00,SE,141,10.0,13.0,58,-99.99,,,-99.99,,2013-06-27 15:42:00,
2013-06-27 10:11:00,65.0,49.0,-100.00,SE,127,11.0,13.0,57,-99.99,,,-99.99,,2013-06-27 16:11:00,
2013-06-27 10:23:00,65.0,51.0,-100.00,ESE,122,11.0,15.0,61,-99.99,,,-99.99,,2013-06-27 16:23:00,
2013-06-27 10:43:00,64.0,50.0,-100.00,ESE,123,14.0,17.0,61,-99.99,,,-99.99,,2013-06-27 16:43:00,
2013-06-27 10:53:00,67.0,54.0,-100.00,SE,126,12.0,16.0,62,-99.99,,,-99.99,,2013-06-27 16:53:00,
2013-06-27 11:11:00,67.0,54.0,-100.00,SE,126,13.0,17.0,63,-99.99,,,-99.99,,2013-06-27 17:11:00,
2013-06-27 11:22:00,67.0,54.0,-100.00,SE,126,13.0,17.0,63,-99.99,,,-99.99,,2013-06-27 17:22:00,
2013-06-27 11:43:00,67.0,54.0,-100.00,SE,133,17.0,22.0,64,-99.99,,,-99.99,,2013-06-27 17:43:00,
2013-06-27 11:53:00,67.0,49.0,-100.00,SE,134,18.0,23.0,52,-99.99,,,-99.99,,2013-06-27 17:53:00,
2013-06-27 12:11:00,68.0,50.0,-100.00,SE,134,16.0,21.0,52,-99.99,,,-99.99,,2013-06-27 18:11:00,
2013-06-27 13:42:00,69.0,46.0,-100.00,SE,128,11.0,17.0,44,-99.99,,,-99.99,,2013-06-27 19:42:00,
2013-06-27 13:53:00,72.0,46.0,-100.00,South,178,6.0,13.0,39,-99.99,,,-99.99,,2013-06-27 19:53:00,
2013-06-27 14:11:00,74.0,45.0,-100.00,West,259,3.0,7.0,35,-99.99,,,-99.99,,2013-06-27 20:11:00,
2013-06-27 14:22:00,72.0,42.0,-100.00,ESE,110,5.0,11.0,34,-99.99,,,-99.99,,2013-06-27 20:22:00,
2013-06-27 14:45:00,73.0,43.0,-100.00,NW,307,3.0,8.0,34,-99.99,,,-99.99,,2013-06-27 20:45:00,
2013-06-27 14:54:00,71.0,43.0,-100.00,SSW,201,2.0,5.0,37,-99.99,,,-99.99,,2013-06-27 20:54:00,
2013-06-27 15:13:00,72.0,43.0,-100.00,NW,325,3.0,8.0,35,-99.99,,,-99.99,,2013-06-27 21:13:00,
2013-06-27 15:24:00,73.0,45.0,-100.00,North,352,2.0,7.0,37,-99.99,,,-99.99,,2013-06-27 21:24:00,
2013-06-27 15:44:00,73.0,41.0,-100.00,North,354,5.0,11.0,31,-99.99,,,-99.99,,2013-06-27 21:44:00,
2013-06-27 15:54:00,72.0,43.0,-100.00,NNE,22,4.0,10.0,35,-99.99,,,-99.99,,2013-06-27 21:54:00,
2013-06-27 16:13:00,76.0,42.0,-100.00,ENE,63,2.0,6.0,30,-99.99,,,-99.99,,2013-06-27 22:13:00,
2013-06-27 16:22:00,77.0,45.0,-100.00,NNE,17,2.0,9.0,32,-99.99,,,-99.99,,2013-06-27 22:22:00,
2013-06-27 16:33:00,77.0,45.0,-100.00,NNE,17,2.0,9.0,32,-99.99,,,-99.99,,2013-06-27 22:33:00,
2013-06-27 16:46:00,73.0,43.0,-100.00,NNW,346,4.0,11.0,34,-99.99,,,-99.99,,2013-06-27 22:46:00,
2013-06-27 16:57:00,72.0,41.0,-100.00,NNW,346,5.0,11.0,33,-99.99,,,-99.99,,2013-06-27 22:57:00,
2013-06-27 17:14:00,72.0,44.0,-100.00,NW,312,4.0,9.0,36,-99.99,,,-99.99,,2013-06-27 23:14:00,
2013-06-27 17:33:00,74.0,43.0,-100.00,WNW,293,2.0,5.0,33,-99.99,,,-99.99,,2013-06-27 23:33:00,
2013-06-27 17:43:00,74.0,43.0,-100.00,WNW,293,2.0,5.0,33,-99.99,,,-99.99,,2013-06-27 23:43:00,
2013-06-27 17:57:00,77.0,44.0,-100.00,NNW,331,2.0,6.0,31,-99.99,,,-99.99,,2013-06-27 23:57:00,
2013-06-27 18:13:00,77.0,40.0,-100.00,WNW,297,3.0,6.0,27,-99.99,,,-99.99,,2013-06-28 00:13:00,
2013-06-27 18:25:00,74.0,41.0,-100.00,NW,319,3.0,10.0,31,-99.99,,,-99.99,,2013-06-28 00:25:00,
2013-06-27 18:44:00,76.0,41.0,-100.00,NNW,330,6.0,13.0,29,-99.99,,,-99.99,,2013-06-28 00:44:00,
2013-06-27 18:55:00,77.0,40.0,-100.00,NNW,338,8.0,14.0,27,-99.99,,,-99.99,,2013-06-28 00:55:00,
2013-06-27 19:12:00,77.0,40.0,-100.00,NNW,335,8.0,13.0,27,-99.99,,,-99.99,,2013-06-28 01:12:00,
2013-06-27 19:23:00,78.0,40.0,-100.00,NNW,331,8.0,15.0,26,-99.99,,,-99.99,,2013-06-28 01:23:00,
2013-06-27 19:34:00,78.0,40.0,-100.00,NNW,331,8.0,15.0,26,-99.99,,,-99.99,,2013-06-28 01:34:00,
2013-06-27 19:45:00,77.0,39.0,-100.00,NNW,329,8.0,14.0,26,-99.99,,,-99.99,,2013-06-28 01:45:00,
2013-06-27 19:56:00,77.0,39.0,-100.00,NNW,327,8.0,13.0,26,-99.99,,,-99.99,,2013-06-28 01:56:00,
2013-06-27 20:14:00,77.0,39.0,-100.00,NW,325,7.0,11.0,26,-99.99,,,-99.99,,2013-06-28 02:14:00,
2013-06-27 20:56:00,73.0,41.0,-100.00,WNW,301,2.0,7.0,31,-99.99,,,-99.99,,2013-06-28 02:56:00,
2013-06-27 21:24:00,72.0,41.0,-100.00,West,281,3.0,8.0,33,-99.99,,,-99.99,,2013-06-28 03:24:00,
2013-06-27 21:56:00,67.0,43.0,-100.00,West,262,3.0,9.0,42,-99.99,,,-99.99,,2013-06-28 03:56:00,
2013-06-27 22:11:00,66.0,42.0,-100.00,West,275,6.0,9.0,42,-99.99,,,-99.99,,2013-06-28 04:11:00,
2013-06-27 22:33:00,66.0,42.0,-100.00,WNW,283,6.0,12.0,42,-99.99,,,-99.99,,2013-06-28 04:33:00,
2013-06-27 22:43:00,66.0,42.0,-100.00,WNW,283,6.0,12.0,42,-99.99,,,-99.99,,2013-06-28 04:43:00,
2013-06-27 22:53:00,65.0,41.0,-100.00,WNW,285,4.0,9.0,42,-99.99,,,-99.99,,2013-06-28 04:53:00,
2013-06-27 23:11:00,65.0,41.0,-100.00,WNW,289,4.0,8.0,42,-99.99,,,-99.99,,2013-06-28 05:11:00,
2013-06-27 23:33:00,65.0,41.0,-100.00,WNW,287,6.0,8.0,41,-99.99,,,-99.99,,2013-06-28 05:33:00,
2013-06-27 23:43:00,65.0,41.0,-100.00,WNW,287,6.0,8.0,41,-99.99,,,-99.99,,2013-06-28 05:43:00,
2013-06-27 23:53:00,64.0,40.0,-100.00,WNW,291,4.0,6.0,41,-99.99,,,-99.99,,2013-06-28 05:53:00,